Terminal Aerodrome Forecast
Issued by NWS

Current Version | Previous Version | Graphics & Text | Print | Product List | Glossary On
Versions: 1 2 3 4 5 6 7 8 9 10 11 12 13 14 15 16 17 18 19
000
FTUS41 KILN 241900 AAA
TAFLUK
TAF AMD
KLUK 241938Z 2420/2518 26013KT P6SM BKN025 OVC045
      TEMPO 2420/2421 SCT025 OVC050
     FM242200 25010KT P6SM SCT250
     FM250700 21005KT P6SM OVC150
     FM251500 15005KT P6SM FEW015 SCT040 OVC100
      TEMPO 2517/2518 5SM -RA SCT015 OVC030=

USA.gov is the U.S. government's official web portal to all federal, state and local government web resources and services.